AB4KN Weather Reports


Display with metric or nautical units.
time (UTC)temp
F
wind
direction
speed
MPH
gust
MPH
rain 1hr
in
rain 24hr
in
rain mn
in
humidity
%
barometer
mb
20260906144736 83 295 0.0 0.0 0.00 0.00 0.00 81 1018.3
20260906144231 82 285 0.0 0.0 0.00 0.00 0.00 80 1018.4
20260906143730 82 285 0.0 0.0 0.00 0.00 0.00 81 1018.2
20260906143227 81 285 0.0 0.0 0.00 0.00 0.00 80 1018.3
20260906142727 81 285 0.0 0.0 0.00 0.00 0.00 80 1018.3
20260906142222 81 296 0.0 0.0 0.00 0.00 0.00 81 1018.3
20260906141721 80 296 0.0 0.0 0.00 0.00 0.00 82 1018.3
20260906141216 80 296 0.0 0.0 0.00 0.00 0.00 85 1018.5
20260906140715 80 295 0.0 0.0 0.00 0.00 0.00 85 1018.5
20260906140210 79 295 0.0 0.0 0.00 0.00 0.00 85 1018.4
20260906135707 79 284 0.0 0.0 0.00 0.00 0.00 85 1018.7
20260906135203 78 283 0.0 0.0 0.00 0.00 0.00 86 1018.5
20260906134658 77 283 0.0 0.0 0.00 0.00 0.00 88 1018.5
20260906134153 77 283 0.0 0.0 0.00 0.00 0.00 88 1018.6
20260906133649 77 283 0.0 0.0 0.00 0.00 0.00 88 1018.4
20260906133144 76 283 0.0 0.0 0.00 0.00 0.00 89 1018.6
20260906132639 76 283 0.0 0.0 0.00 0.00 0.00 89 1018.3
20260906132135 75 283 0.0 0.0 0.00 0.00 0.00 89 1018.4
20260906131630 75 283 0.0 0.0 0.00 0.00 0.00 89 1018.4
20260906131125 75 283 0.0 0.0 0.00 0.00 0.00 89 1018.8
20260906130620 75 283 0.0 0.0 0.00 0.00 0.00 89 1018.5
20260906130115 74 283 0.0 0.0 0.00 0.00 0.00 89 1018.6
20260906125607 74 283 0.0 0.0 0.00 0.00 0.00 89 1018.7
20260906125106 74 283 0.0 0.0 0.00 0.00 0.00 89 1018.5
20260906124602 74 283 0.0 0.0 0.00 0.00 0.00 89 1018.6
20260906124057 73 283 0.0 0.0 0.00 0.00 0.00 89 1018.6
20260906123556 73 283 0.0 0.0 0.00 0.00 0.00 89 1018.5
20260906123051 73 283 0.0 0.0 0.00 0.00 0.00 89 1018.5
20260906122550 73 283 0.0 0.0 0.00 0.00 0.00 89 1018.4
20260906122047 73 283 0.0 0.0 0.00 0.00 0.00 89 1018.2
20260906121542 73 283 0.0 0.0 0.00 0.00 0.00 89 1018.5
20260906121039 73 283 0.0 0.0 0.00 0.00 0.00 89 1018.2
20260906120534 72 283 0.0 0.0 0.00 0.00 0.00 89 1018.1
20260906120031 72 283 0.0 0.0 0.00 0.00 0.00 89 1018.2
20260906115531 72 283 0.0 0.0 0.00 0.00 0.00 89 1018.4
20260906115026 72 283 0.0 0.0 0.00 0.00 0.00 89 1018.2
20260906114520 72 283 0.0 0.0 0.00 0.00 0.00 89 1018.0
20260906114016 72 283 0.0 0.0 0.00 0.00 0.00 89 1018.2
20260906113515 72 283 0.0 0.0 0.00 0.00 0.00 89 1018.2
20260906113010 72 283 0.0 0.0 0.00 0.00 0.00 89 1018.2
20260906112505 73 283 0.0 0.0 0.00 0.00 0.00 89 1018.2
20260906112002 73 283 0.0 0.0 0.00 0.00 0.00 89 1018.1
20260906111501 73 283 0.0 0.0 0.00 0.00 0.00 89 1018.0
20260906110956 73 283 0.0 0.0 0.00 0.00 0.00 89 1017.9
20260906110450 73 283 0.0 0.0 0.00 0.00 0.00 89 1018.1
20260906105949 0 0.0 0.0 0.00 0.00 0.00 1018.0
20260906105445 72 283 0.0 0.0 0.00 0.00 0.00 89 1017.9
20260906104942 72 283 0.0 0.0 0.00 0.00 0.00 89 1017.9
20260906104440 72 283 0.0 0.0 0.00 0.00 0.00 89 1018.0
20260906103939 72 283 0.0 0.0 0.00 0.00 0.00 89 1018.2
20260906103437 72 283 0.0 0.0 0.00 0.00 0.00 89 1018.3
20260906102932 72 283 0.0 0.0 0.00 0.00 0.00 89 1018.0
20260906102427 72 283 0.0 0.0 0.00 0.00 0.00 89 1018.1
20260906101922 72 283 0.0 0.0 0.00 0.00 0.00 89 1018.0
20260906101417 72 283 0.0 0.0 0.00 0.00 0.00 89 1018.1
20260906100912 72 283 0.0 0.0 0.00 0.00 0.00 89 1018.1
20260906100412 72 283 0.0 0.0 0.00 0.00 0.00 89 1018.1
20260906095906 72 283 0.0 0.0 0.00 0.00 0.00 89 1018.0
20260906095402 72 283 0.0 0.0 0.00 0.00 0.00 89 1017.8
20260906094902 72 283 0.0 0.0 0.00 0.00 0.00 89 1018.1
20260906094356 72 283 0.0 0.0 0.00 0.00 0.00 89 1017.9
20260906093847 72 283 0.0 0.0 0.00 0.00 0.00 89 1018.1
20260906093343 72 283 0.0 0.0 0.00 0.00 0.00 89 1017.8
20260906092842 72 283 0.0 0.0 0.00 0.00 0.00 89 1017.9
20260906092337 72 283 0.0 0.0 0.00 0.00 0.00 89 1017.9
20260906091833 72 270 0.0 0.0 0.00 0.00 0.00 89 1018.1
20260906091329 72 268 0.0 0.0 0.00 0.00 0.00 89 1017.7
20260906090826 72 281 0.0 0.0 0.00 0.00 0.00 89 1017.8
20260906090325 72 283 0.0 0.0 0.00 0.00 0.00 89 1017.8
20260906085825 72 283 0.0 0.0 0.00 0.00 0.00 89 1017.9
20260906085324 72 283 0.0 0.0 0.00 0.00 0.00 89 1017.8
20260906084819 72 283 0.0 0.0 0.00 0.00 0.00 89 1017.9
20260906084318 72 282 0.0 0.0 0.00 0.00 0.00 89 1017.8
20260906083813 72 283 0.0 0.0 0.00 0.00 0.00 89 1017.7
20260906083309 72 283 0.0 0.0 0.00 0.00 0.00 89 1017.7
20260906082803 72 283 0.0 0.0 0.00 0.00 0.00 89 1017.5
20260906082258 72 283 0.0 0.0 0.00 0.00 0.00 89 1017.2
20260906081754 72 283 0.0 0.0 0.00 0.00 0.00 89 1017.6
20260906081249 72 283 0.0 0.0 0.00 0.00 0.00 89 1017.6
20260906080746 72 283 0.0 0.0 0.00 0.00 0.00 89 1017.8
20260906080242 72 283 0.0 0.0 0.00 0.00 0.00 89 1017.5
20260906075735 72 283 0.0 0.0 0.00 0.00 0.00 89 1017.8
20260906075230 72 283 0.0 0.0 0.00 0.00 0.00 89 1017.9
20260906074725 72 283 0.0 0.0 0.00 0.00 0.00 89 1017.6
20260906074225 72 283 0.0 0.0 0.00 0.00 0.00 89 1017.7
20260906073725 72 283 0.0 0.0 0.00 0.00 0.00 89 1017.7
20260906073220 72 282 0.0 0.0 0.00 0.00 0.00 89 1017.7
20260906072715 72 283 0.0 0.0 0.00 0.00 0.00 89 1017.7
20260906072211 72 283 0.0 0.0 0.00 0.00 0.00 89 1017.7
20260906071707 72 283 0.0 0.0 0.00 0.00 0.00 89 1017.9
20260906071206 72 283 0.0 0.0 0.00 0.00 0.00 89 1017.7
20260906070703 73 269 0.0 0.0 0.00 0.00 0.00 89 1018.0
20260906070158 73 269 0.0 0.0 0.00 0.00 0.00 89 1018.0
20260906065658 73 268 0.0 0.0 0.00 0.00 0.00 89 1017.7
20260906065154 73 280 0.0 0.0 0.00 0.00 0.00 89 1017.9
20260906064649 73 277 0.0 0.0 0.00 0.00 0.00 89 1017.6
20260906064144 73 277 0.0 0.0 0.00 0.00 0.00 89 1017.8
20260906063639 73 277 0.0 0.0 0.00 0.00 0.00 89 1017.8
20260906063135 73 276 0.0 0.0 0.00 0.00 0.00 89 1018.1
20260906062631 73 253 0.0 0.0 0.00 0.00 0.00 89 1018.1
20260906062129 73 283 0.0 0.0 0.00 0.00 0.00 89 1018.2
20260906061626 73 252 0.0 0.0 0.00 0.00 0.00 89 1018.1
20260906061125 73 253 0.0 0.0 0.00 0.00 0.00 89 1018.2
20260906060622 73 252 0.0 0.0 0.00 0.00 0.00 89 1018.2
20260906060119 73 249 0.0 0.0 0.00 0.00 0.00 89 1018.4
20260906055614 73 265 0.0 0.0 0.00 0.00 0.00 89 1018.1
20260906055110 73 287 0.0 0.0 0.00 0.00 0.00 89 1018.3
20260906054610 73 287 0.0 0.0 0.00 0.00 0.00 89 1018.0
20260906054100 73 287 0.0 0.0 0.00 0.00 0.00 89 1018.2
20260906053556 73 287 0.0 0.0 0.00 0.00 0.00 89 1018.1
20260906053051 73 287 0.0 0.0 0.00 0.00 0.00 89 1018.1
20260906052546 73 287 0.0 0.0 0.00 0.00 0.00 89 1018.1
20260906052044 73 287 0.0 0.0 0.00 0.00 0.00 89 1018.2
20260906051539 73 287 0.0 0.0 0.00 0.00 0.00 89 1018.5
20260906051034 73 288 0.0 0.0 0.00 0.00 0.00 89 1018.2
20260906050524 73 288 0.0 0.0 0.00 0.00 0.00 89 1018.1
20260906050024 73 287 0.0 0.0 0.00 0.00 0.00 89 1018.1
20260906045516 73 287 0.0 0.0 0.00 0.00 0.00 89 1018.0
20260906045012 73 288 0.0 0.0 0.00 0.00 0.00 89 1018.4
20260906044508 73 288 0.0 0.0 0.00 0.00 0.00 89 1018.4
20260906044003 73 288 0.0 0.0 0.00 0.00 0.00 89 1017.9
20260906043459 73 287 0.0 0.0 0.00 0.00 0.00 89 1018.1
20260906042954 73 287 0.0 0.0 0.00 0.00 0.00 89 1018.1
20260906042454 73 287 0.0 0.0 0.00 0.00 0.00 89 1018.3
20260906041953 73 287 0.0 0.0 0.00 0.00 0.00 89 1018.0
20260906041450 73 287 0.0 0.0 0.00 0.00 0.00 89 1018.3
20260906040949 73 288 0.0 0.0 0.00 0.00 0.00 89 1018.1
20260906040444 73 288 0.0 0.0 0.00 0.00 0.00 89 1018.0
20260906035940 73 288 0.0 0.0 0.00 0.27 0.27 89 1017.9
20260906035435 73 287 0.0 0.0 0.00 0.27 0.27 89 1018.0
20260906034931 73 288 0.0 0.0 0.00 0.27 0.27 89 1017.9
20260906034425 73 288 0.0 0.0 0.00 0.27 0.27 89 1018.2
20260906033920 73 288 0.0 0.0 0.00 0.27 0.27 89 1018.0
20260906033415 73 288 0.0 0.0 0.00 0.27 0.27 89 1017.9
20260906032911 73 286 0.0 0.0 0.00 0.27 0.27 89 1018.2
20260906032407 73 286 0.0 0.0 0.00 0.27 0.27 89 1018.3
20260906031901 73 286 0.0 0.0 0.00 0.27 0.27 89 1018.4
20260906031356 73 286 0.0 0.0 0.00 0.27 0.27 89 1018.6
20260906030852 73 286 0.0 0.0 0.00 0.27 0.27 89 1018.6
20260906030347 74 284 0.0 0.0 0.00 0.27 0.27 89 1019.0
20260906025846 74 278 0.0 0.0 0.00 0.27 0.27 89 1018.9
20260906025341 74 272 0.0 0.0 0.00 0.27 0.27 89 1019.0
20260906024840 74 289 0.0 0.0 0.00 0.27 0.27 89 1019.1
20260906024339 74 266 0.0 0.0 0.00 0.27 0.27 89 1019.3
20260906023835 73 280 0.0 0.0 0.00 0.27 0.27 89 1018.9
20260906023330 73 278 0.0 0.0 0.00 0.27 0.27 89 1019.1
20260906022826 73 277 0.0 0.0 0.00 0.27 0.27 89 1019.0
20260906022321 73 276 0.0 0.0 0.00 0.27 0.27 89 1019.0
20260906021816 73 291 0.0 0.0 0.00 0.27 0.27 89 1019.0
20260906021315 73 293 0.0 0.0 0.00 0.27 0.27 89 1018.9
20260906020810 73 281 0.0 0.0 0.00 0.27 0.27 89 1018.7
20260906020309 73 299 0.0 0.0 0.00 0.27 0.27 89 1018.9
20260906015804 73 257 0.0 0.0 0.00 0.27 0.27 89 1019.4
20260906015305 73 255 0.0 0.0 0.00 0.27 0.27 89 1019.4
20260906014757 73 237 0.0 0.0 0.00 0.27 0.27 89 1018.9
20260906014253 73 211 2.0 2.0 0.00 0.27 0.27 89 1019.0
20260906013749 73 275 0.0 0.0 0.00 0.27 0.27 89 1018.9
20260906013249 73 277 0.0 0.0 0.00 0.27 0.27 89 1018.6
20260906012744 73 280 0.0 0.0 0.00 0.27 0.27 89 1018.8
20260906012239 73 280 0.0 0.0 0.00 0.27 0.27 89 1018.6
20260906011735 73 280 0.0 0.0 0.00 0.27 0.27 89 1018.6
20260906011234 73 280 0.0 0.0 0.00 0.27 0.27 89 1018.9
20260906010730 73 278 0.0 0.0 0.00 0.27 0.27 89 1018.7
20260906010226 73 278 0.0 0.0 0.00 0.27 0.27 89 1018.4
20260906005721 73 272 0.0 0.0 0.00 0.27 0.27 89 1018.3
20260906005220 73 283 0.0 0.0 0.00 0.27 0.27 89 1017.7
20260906004720 73 283 0.0 0.0 0.00 0.27 0.27 89 1018.0
20260906004215 73 283 0.0 0.0 0.00 0.27 0.27 89 1017.7
20260906003710 73 283 0.0 0.0 0.00 0.27 0.27 89 1017.7
20260906003206 73 244 0.0 2.0 0.00 0.27 0.27 89 1017.4
20260906002706 73 244 0.0 0.0 0.05 0.27 0.27 89 1017.1
20260906002200 73 238 2.0 3.0 0.05 0.27 0.27 89 1017.6
20260906001656 73 273 1.0 2.0 0.07 0.26 0.26 89 1017.7
20260906001155 74 232 0.0 2.0 0.42 0.26 0.26 89 1017.7
20260906000651 74 224 2.0 3.0 1.21 0.25 0.25 89 1018.1
20260906000147 75 315 0.0 0.0 1.13 0.20 0.20 88 1018.3
20260905235645 75 276 0.0 0.0 0.28 0.05 0.05 87 1017.9
20260905235141 76 295 0.0 2.0 0.00 0.00 0.00 87 1018.1
20260905234636 77 300 3.0 3.0 0.00 0.00 0.00 85 1018.2
20260905234131 80 339 2.0 3.0 0.00 0.00 0.00 81 1018.3
20260905233626 86 331 5.0 5.0 0.00 0.00 0.00 70 1018.1
20260905233120 88 307 2.0 3.0 0.00 0.00 0.00 63 1017.9
20260905232616 89 331 0.0 0.0 0.00 0.00 0.00 66 1017.4
20260905232112 89 266 0.0 0.0 0.00 0.00 0.00 65 1016.6
20260905231612 89 148 2.0 3.0 0.00 0.00 0.00 65 1016.7
20260905231108 89 213 2.0 3.0 0.00 0.00 0.00 65 1016.7
20260905230604 89 237 3.0 3.0 0.00 0.00 0.00 65 1016.8
20260905225601 89 243 3.0 3.0 0.00 0.00 0.00 66 1016.8
20260905225056 89 243 3.0 5.0 0.00 0.00 0.00 65 1016.9
20260905224556 90 198 3.0 5.0 0.00 0.00 0.00 65 1016.7
20260905224055 90 242 3.0 5.0 0.00 0.00 0.00 65 1016.7
20260905223553 90 197 3.0 5.0 0.00 0.00 0.00 64 1016.9
20260905223049 91 185 3.0 3.0 0.00 0.00 0.00 63 1016.8
20260905222549 91 246 2.0 3.0 0.00 0.00 0.00 63 1016.6
20260905222044 91 234 4.0 5.0 0.00 0.00 0.00 63 1016.4
20260905221540 91 266 4.0 7.0 0.00 0.00 0.00 62 1016.6
20260905221036 92 247 1.0 2.0 0.00 0.00 0.00 61 1016.7
20260905220531 91 259 0.0 0.0 0.00 0.00 0.00 61 1016.5
20260905220028 92 240 4.0 5.0 0.00 0.00 0.00 60 1016.6
20260905215526 93 274 3.0 5.0 0.00 0.00 0.00 60 1016.2
20260905215023 93 251 2.0 3.0 0.00 0.00 0.00 59 1016.4
20260905214519 93 260 0.0 0.0 0.00 0.00 0.00 60 1016.2
20260905214014 93 208 3.0 3.0 0.00 0.00 0.00 61 1016.3
20260905213509 93 268 0.0 2.0 0.00 0.00 0.00 61 1016.5
20260905213004 93 232 4.0 5.0 0.00 0.00 0.00 61 1016.3
20260905212459 94 162 2.0 3.0 0.00 0.00 0.00 59 1016.4
20260905211958 94 236 2.0 2.0 0.00 0.00 0.00 57 1016.4
20260905211454 95 117 3.0 5.0 0.00 0.00 0.00 55 1016.3
20260905210949 96 260 2.0 3.0 0.00 0.00 0.00 45 1016.4
20260905210445 96 289 0.0 0.0 0.00 0.00 0.00 46 1016.3
20260905205944 96 289 0.0 0.0 0.00 0.00 0.00 45 1016.3
20260905205439 96 237 0.0 0.0 0.00 0.00 0.00 46 1016.3
20260905204938 96 288 0.0 0.0 0.00 0.00 0.00 46 1016.3
20260905204434 96 281 0.0 0.0 0.00 0.00 0.00 46 1016.5
20260905203933 95 294 0.0 0.0 0.00 0.00 0.00 48 1016.6
20260905203429 95 296 0.0 0.0 0.00 0.00 0.00 49 1016.9
20260905202924 95 296 0.0 0.0 0.00 0.00 0.00 49 1016.8
20260905202419 95 278 0.0 0.0 0.00 0.00 0.00 48 1016.7
20260905201914 95 272 0.0 0.0 0.00 0.00 0.00 46 1016.9
20260905201410 96 265 0.0 0.0 0.00 0.00 0.00 46 1016.9
20260905200910 98 201 0.0 0.0 0.00 0.00 0.00 44 1017.1
20260905200405 96 279 0.0 0.0 0.00 0.00 0.00 45 1017.3
20260905195903 96 196 2.0 3.0 0.00 0.00 0.00 44 1017.5
20260905195359 96 248 0.0 0.0 0.00 0.00 0.00 46 1017.4
20260905194855 95 254 1.0 2.0 0.00 0.00 0.00 46 1017.7
20260905194354 96 240 0.0 0.0 0.00 0.00 0.00 45 1017.8
20260905193854 97 261 0.0 0.0 0.00 0.00 0.00 43 1017.4
20260905193348 97 237 1.0 2.0 0.00 0.00 0.00 42 1017.6
20260905192844 96 275 0.0 0.0 0.00 0.00 0.00 46 1017.6
20260905192340 96 275 0.0 0.0 0.00 0.00 0.00 47 1017.7
20260905191839 96 275 0.0 0.0 0.00 0.00 0.00 47 1017.6
20260905191338 97 275 0.0 2.0 0.00 0.00 0.00 45 1017.8
20260905190837 97 230 3.0 3.0 0.00 0.00 0.00 44 1017.8
20260905190337 96 300 0.0 0.0 0.00 0.00 0.00 44 1017.9
20260905185836 97 301 0.0 0.0 0.00 0.00 0.00 43 1017.9
20260905185331 96 292 0.0 0.0 0.00 0.00 0.00 44 1017.8
20260905184830 95 228 4.0 5.0 0.00 0.00 0.00 44 1017.7
20260905184330 95 142 0.0 0.0 0.00 0.00 0.00 44 1018.0
20260905183828 96 289 0.0 0.0 0.00 0.00 0.00 46 1018.0
20260905183323 96 263 0.0 0.0 0.00 0.00 0.00 46 1018.1
20260905182818 96 253 0.0 0.0 0.00 0.00 0.00 46 1018.4
20260905182318 96 164 0.0 3.0 0.00 0.00 0.00 44 1018.5
20260905181814 97 252 0.0 0.0 0.00 0.00 0.00 45 1018.4
20260905181313 97 275 0.0 0.0 0.00 0.00 0.00 45 1018.5
20260905180812 97 235 0.0 0.0 0.00 0.00 0.00 43 1018.7
20260905180307 96 228 0.0 0.0 0.00 0.00 0.00 46 1018.3
20260905175802 95 267 0.0 0.0 0.00 0.00 0.00 48 1018.4
20260905175257 95 244 0.0 0.0 0.00 0.00 0.00 49 1018.5
20260905174752 96 290 0.0 0.0 0.00 0.00 0.00 47 1018.8
20260905174248 96 282 0.0 0.0 0.00 0.00 0.00 46 1018.7
20260905173744 97 277 0.0 0.0 0.00 0.00 0.00 48 1018.9
20260905173239 97 294 0.0 0.0 0.00 0.00 0.00 44 1018.9
20260905172739 97 280 0.0 0.0 0.00 0.00 0.00 46 1018.8
20260905172238 96 246 0.0 0.0 0.00 0.00 0.00 47 1018.9
20260905171734 96 276 0.0 0.0 0.00 0.00 0.00 48 1019.1
20260905171230 96 287 0.0 0.0 0.00 0.00 0.00 50 1019.1
20260905170727 94 247 1.0 2.0 0.00 0.00 0.00 51 1019.3
20260905170222 94 245 0.0 0.0 0.00 0.00 0.00 52 1019.5
20260905165721 94 260 0.0 0.0 0.00 0.00 0.00 52 1019.5
20260905165217 95 285 0.0 0.0 0.00 0.00 0.00 51 1019.1
20260905164717 95 269 0.0 0.0 0.00 0.00 0.00 51 1019.5
20260905164217 95 284 0.0 0.0 0.00 0.00 0.00 51 1019.6
20260905163713 95 167 0.0 0.0 0.00 0.00 0.00 50 1019.7
20260905163209 95 271 0.0 0.0 0.00 0.00 0.00 52 1019.9
20260905162705 94 298 0.0 0.0 0.00 0.00 0.00 52 1020.0
20260905162204 94 337 0.0 0.0 0.00 0.00 0.00 53 1019.7
20260905161700 94 304 0.0 0.0 0.00 0.00 0.00 52 1019.9
20260905161157 93 336 0.0 0.0 0.00 0.00 0.00 54 1019.8
20260905160650 93 336 0.0 0.0 0.00 0.00 0.00 54 1019.7
20260905160150 93 300 0.0 0.0 0.00 0.00 0.00 56 1020.0
20260905155644 92 300 0.0 0.0 0.00 0.00 0.00 57 1020.1
20260905155143 92 299 0.0 0.0 0.00 0.00 0.00 57 1019.8
20260905154638 91 300 0.0 0.0 0.00 0.00 0.00 57 1019.8
20260905154134 91 296 0.0 0.0 0.00 0.00 0.00 58 1020.0
20260905153629 91 292 0.0 0.0 0.00 0.00 0.00 59 1019.8
20260905153125 90 297 0.0 0.0 0.00 0.00 0.00 58 1020.1
20260905152619 90 296 0.0 0.0 0.00 0.00 0.00 59 1020.2
20260905152114 89 294 0.0 0.0 0.00 0.00 0.00 60 1020.2
20260905151609 89 294 0.0 0.0 0.00 0.00 0.00 61 1020.2
20260905151104 89 288 0.0 0.0 0.00 0.00 0.00 61 1020.2
20260905150600 89 288 0.0 0.0 0.00 0.00 0.00 61 1020.2
20260905150057 88 286 0.0 0.0 0.00 0.00 0.00 63 1020.3
20260905145551 88 274 0.0 0.0 0.00 0.00 0.00 63 1020.4